BAW699W LOWW-EGLL

Flight info

Callsign BAW699W
Flight time N/A
Altitude 36000
Route BUWUT2B/16 BUWUT DCT DITIS DCT IPDUL DCT OKG DCT VELIS DCT SWALM DCT TIVUN DCT BREDA DCT ABNED L980 LOGAN
Aircraft A21N/M-SDE2E3FGHIRWXY/LB1

Departure

Time 2026-05-06 19:23
Airport Vienna International Airport (LOWW)

Arrival

Time N/A
Airport London Heathrow Airport (EGLL)
Time Latitude Longitude Altitude Speed Heading
2026-05-06 18:24 48.11904 16.56018 616 ft 0 kts 160°
2026-05-06 18:58 48.11916 16.56012 628 ft 4 kts 167°
2026-05-06 18:58 48.11934 16.56009 631 ft 2 kts 164°
2026-05-06 18:58 48.11956 16.55993 628 ft 4 kts 136°
2026-05-06 18:58 48.11974 16.55966 631 ft 4 kts 158°
2026-05-06 18:59 48.11983 16.55965 629 ft 1 kts 206°
2026-05-06 18:59 48.11985 16.55967 629 ft 0 kts 206°
2026-05-06 19:01 48.11977 16.55961 616 ft 2 kts 206°
2026-05-06 19:02 48.11957 16.55946 616 ft 4 kts 206°
2026-05-06 19:02 48.11924 16.55922 622 ft 6 kts 206°
2026-05-06 19:02 48.11879 16.55890 627 ft 8 kts 206°
2026-05-06 19:02 48.11824 16.55850 621 ft 9 kts 205°
2026-05-06 19:03 48.11769 16.55811 624 ft 9 kts 205°
2026-05-06 19:03 48.11724 16.55775 627 ft 6 kts 225°
2026-05-06 19:03 48.11721 16.55706 626 ft 8 kts 295°
2026-05-06 19:03 48.11746 16.55622 624 ft 10 kts 295°
2026-05-06 19:04 48.11779 16.55520 619 ft 12 kts 296°
2026-05-06 19:04 48.11818 16.55403 617 ft 14 kts 296°
2026-05-06 19:04 48.11862 16.55269 618 ft 15 kts 296°
2026-05-06 19:04 48.11911 16.55122 626 ft 17 kts 296°
2026-05-06 19:05 48.11965 16.54958 625 ft 18 kts 296°
2026-05-06 19:05 48.12021 16.54784 626 ft 19 kts 296°
2026-05-06 19:05 48.12072 16.54626 618 ft 0 kts 295°
2026-05-06 19:05 48.12073 16.54625 618 ft 1 kts 295°
2026-05-06 19:06 48.12081 16.54600 616 ft 4 kts 295°
2026-05-06 19:06 48.12097 16.54549 620 ft 6 kts 295°
2026-05-06 19:06 48.12119 16.54480 619 ft 8 kts 295°
2026-05-06 19:06 48.12148 16.54391 616 ft 10 kts 296°
2026-05-06 19:07 48.12182 16.54287 616 ft 12 kts 296°
2026-05-06 19:07 48.12223 16.54166 625 ft 14 kts 296°
2026-05-06 19:07 48.12267 16.54025 621 ft 16 kts 296°
2026-05-06 19:07 48.12312 16.53887 620 ft 7 kts 296°
2026-05-06 19:08 48.12331 16.53828 623 ft 6 kts 295°
2026-05-06 19:08 48.12332 16.53825 623 ft 0 kts 295°
2026-05-06 19:09 48.12333 16.53824 616 ft 0 kts 295°
2026-05-06 19:09 48.12338 16.53808 623 ft 3 kts 295°
2026-05-06 19:09 48.12349 16.53772 616 ft 5 kts 295°
2026-05-06 19:09 48.12366 16.53719 623 ft 7 kts 295°
2026-05-06 19:10 48.12372 16.53702 618 ft 0 kts 295°
2026-05-06 19:13 48.12376 16.53689 618 ft 3 kts 295°
2026-05-06 19:14 48.12386 16.53651 623 ft 5 kts 279°
2026-05-06 19:14 48.12378 16.53594 626 ft 7 kts 224°
2026-05-06 19:14 48.12351 16.53570 618 ft 0 kts 205°
2026-05-06 19:18 48.12350 16.53569 618 ft 1 kts 205°
2026-05-06 19:18 48.12334 16.53558 626 ft 4 kts 205°
2026-05-06 19:18 48.12298 16.53533 621 ft 7 kts 205°
2026-05-06 19:18 48.12240 16.53513 627 ft 11 kts 159°
2026-05-06 19:19 48.12202 16.53580 617 ft 0 kts 115°
2026-05-06 19:22 48.12115 16.53849 619 ft 64 kts 117°
2026-05-06 19:22 48.11827 16.54732 627 ft 123 kts 117°
2026-05-06 19:22 48.11405 16.56063 678 ft 158 kts 115°
2026-05-06 19:22 48.10994 16.57590 1169 ft 161 kts 118°
2026-05-06 19:23 48.10551 16.59142 1673 ft 163 kts 122°
2026-05-06 19:23 48.10075 16.60706 2137 ft 162 kts 134°
2026-05-06 19:23 48.09579 16.62290 2420 ft 190 kts 107°
2026-05-06 19:23 48.09932 16.64353 2682 ft 219 kts 66°
2026-05-06 19:24 48.10784 16.66249 3037 ft 226 kts 62°
2026-05-06 19:24 48.11652 16.68285 3368 ft 233 kts 63°
2026-05-06 19:24 48.12489 16.70365 3670 ft 241 kts 64°
2026-05-06 19:24 48.13354 16.72573 3946 ft 251 kts 64°
2026-05-06 19:25 48.14253 16.74894 4236 ft 266 kts 64°
2026-05-06 19:25 48.15268 16.77295 4654 ft 281 kts 52°
2026-05-06 19:25 48.16836 16.79183 4964 ft 295 kts 23°
2026-05-06 19:25 48.18822 16.79809 5038 ft 296 kts 353°
2026-05-06 19:26 48.20822 16.79257 5060 ft 291 kts 340°
2026-05-06 19:26 48.22800 16.78453 5044 ft 290 kts 339°
2026-05-06 19:26 48.24731 16.77693 5015 ft 291 kts 340°
2026-05-06 19:26 48.26723 16.76949 5012 ft 291 kts 341°
2026-05-06 19:27 48.28666 16.76243 5015 ft 292 kts 341°
2026-05-06 19:27 48.30671 16.75530 5021 ft 292 kts 342°
2026-05-06 19:27 48.32655 16.74831 5021 ft 293 kts 342°
2026-05-06 19:27 48.34600 16.73985 5021 ft 288 kts 332°
2026-05-06 19:28 48.36366 16.72688 5034 ft 285 kts 327°
2026-05-06 19:28 48.38115 16.71300 5040 ft 284 kts 327°
2026-05-06 19:28 48.39891 16.69890 5202 ft 286 kts 327°
2026-05-06 19:28 48.41632 16.68513 5720 ft 287 kts 327°
2026-05-06 19:29 48.43342 16.67012 6259 ft 282 kts 317°
2026-05-06 19:29 48.44632 16.64874 6710 ft 273 kts 295°
2026-05-06 19:29 48.45384 16.62280 7174 ft 270 kts 284°
2026-05-06 19:29 48.46011 16.59601 7672 ft 271 kts 285°
2026-05-06 19:30 48.46651 16.56911 8152 ft 274 kts 287°
2026-05-06 19:30 48.47308 16.54203 8623 ft 277 kts 287°
2026-05-06 19:30 48.47976 16.51462 9078 ft 280 kts 287°
2026-05-06 19:30 48.48655 16.48684 9541 ft 283 kts 287°
2026-05-06 19:31 48.49340 16.45885 9966 ft 286 kts 287°
2026-05-06 19:32 48.52149 16.34420 10680 ft 323 kts 287°
2026-05-06 19:32 48.52932 16.31219 10941 ft 326 kts 287°
2026-05-06 19:32 48.53720 16.28005 11230 ft 327 kts 287°
2026-05-06 19:32 48.54510 16.24780 11531 ft 328 kts 286°
2026-05-06 19:33 48.55290 16.21585 11822 ft 329 kts 286°
2026-05-06 19:33 48.56093 16.18295 12103 ft 330 kts 287°
2026-05-06 19:33 48.56885 16.15041 12371 ft 331 kts 287°
2026-05-06 19:33 48.57732 16.11790 12616 ft 333 kts 289°
2026-05-06 19:34 48.58635 16.08608 12853 ft 335 kts 290°
2026-05-06 19:35 48.62317 15.95776 13738 ft 341 kts 290°
2026-05-06 19:35 48.63254 15.92484 13949 ft 341 kts 290°
2026-05-06 19:35 48.64179 15.89262 13985 ft 320 kts 289°